Date,TemperatureHighF,TemperatureAvgF,TemperatureLowF,DewpointHighF,DewpointAvgF,DewpointLowF,HumidityHigh,HumidityAvg,HumidityLow,PressureMaxIn,PressureMinIn,WindSpeedMaxMPH,WindSpeedAvgMPH,GustSpeedMaxMPH,PrecipitationSumIn
2013-3-1,34.0,31.9,29.0,32.0,28.4,26.0,95,87,76,29.40,29.22,4,1,0,0.00
2013-3-2,34.0,29.3,25.0,28.0,26.0,23.0,94,88,71,29.42,29.33,4,1,0,0.00
2013-3-3,32.0,26.8,23.0,28.0,23.7,21.0,93,88,80,29.39,29.27,3,1,0,0.00
2013-3-4,29.0,24.5,22.0,24.0,20.2,19.0,88,83,72,29.52,29.29,3,1,0,0.00
2013-3-5,41.0,31.1,22.0,31.0,25.5,19.0,89,80,65,29.77,29.50,3,1,0,0.00
2013-3-6,38.0,34.5,31.0,31.0,26.5,22.0,92,73,61,29.89,29.74,9,4,0,0.00
2013-3-7,36.0,33.0,30.0,25.0,23.7,22.0,76,68,63,29.88,29.76,6,2,0,0.00
2013-3-8,43.0,33.9,29.0,25.0,23.4,22.0,77,66,47,29.97,29.75,4,1,0,0.00
2013-3-9,55.0,33.9,17.0,24.0,21.2,15.0,93,65,26,30.01,29.91,2,0,0,0.00
2013-3-10,52.0,37.2,20.0,28.0,23.7,18.0,94,63,32,30.05,29.84,5,1,0,0.00
2013-3-11,49.0,43.0,37.0,32.0,29.5,27.0,74,59,46,29.91,29.69,4,1,0,0.00
2013-3-12,49.0,45.8,39.0,48.0,42.1,29.0,96,88,52,29.71,29.35,5,1,0,0.00
2013-3-13,39.0,35.1,27.0,38.0,32.6,26.0,98,91,71,29.48,29.40,2,0,0,0.00
2013-3-14,30.0,24.0,15.0,26.0,16.0,5.0,96,72,56,29.55,29.35,7,2,0,0.00
2013-3-15,33.0,21.7,12.0,26.0,13.0,5.0,92,70,44,29.56,29.23,5,1,0,0.00
2013-3-16,28.0,23.2,16.0,22.0,14.7,9.0,92,70,50,29.57,29.33,3,1,0,0.00
2013-3-17,24.0,15.4,6.0,14.0,5.9,-1.0,90,68,38,30.03,29.54,5,2,0,0.00
2013-3-18,32.0,18.3,2.0,13.0,3.4,-2.0,89,57,24,30.14,29.82,3,0,0,0.00
2013-3-19,32.0,26.3,22.0,27.0,22.9,11.0,94,87,53,29.86,29.38,8,1,0,0.00
2013-3-20,32.0,25.2,18.0,28.0,22.5,16.0,94,89,73,29.42,29.28,3,0,0,0.00
2013-3-21,27.0,21.1,17.0,18.0,16.4,15.0,91,82,66,29.40,29.29,2,0,0,0.00
2013-3-22,35.0,24.9,13.0,24.0,17.5,11.0,92,74,49,29.40,29.27,4,1,0,0.00
2013-3-23,35.0,28.9,22.0,26.0,23.0,19.0,93,79,60,29.44,29.26,5,2,0,0.00
2013-3-24,32.0,30.3,29.0,26.0,25.2,24.0,84,81,76,29.53,29.40,2,0,0,0.00
2013-3-26,44.0,37.5,28.0,25.0,23.0,21.0,82,57,43,29.47,29.32,6,2,0,0.00
2013-3-27,43.0,33.2,22.0,34.0,27.6,20.0,96,81,58,29.60,29.42,4,1,0,0.00
2013-3-28,47.0,37.5,32.0,36.0,32.3,30.0,98,83,58,29.72,29.56,5,1,0,0.00
2013-3-29,42.0,36.8,33.0,33.0,30.8,30.0,91,79,63,29.74,29.68,1,0,0,0.00
2013-3-30,49.0,37.4,28.0,33.0,23.1,13.0,96,63,25,29.78,29.69,5,1,0,0.00
2013-3-31,55.0,38.4,20.0,37.0,21.2,-99.9,93,57,28,29.80,29.44,7,2,0,0.00